Powrót do katalogu

STARLINK-37790

AktywnyŁącznośćSSO
NORAD 69312·PAYLOAD·🇺🇸 United States

Wystrzelony May 30, 2026 z Vandenberg Space Force Base

Loading…

Następne Przeloty (najbliższe 24 godziny)

TLE

ŚwieżeSource: CelesTrak SupGP

Epoka: Sep 14, 2026, 22:39 UTC

1 69312C 26119S   26257.94423611  .00036346  00000+0  11284-2 0  2578
2 69312  97.2829 282.7959 0001340  96.0444 285.5791 15.33417351    18

Śledź STARLINK-37790 w czasie rzeczywistym z AllMySat

Download on the App Store